Location: NCO
(38.4404°N, 77.1340°W)
Time: 12:06:51
(UTC-04:00)

Amateur Radio Satellites - All Passes

Search period start: 24 March 2017 11:36
Search period end: 25 March 2017 11:36
Location: NCO, 38.4404°N, 77.1340°W

Satellite Date Start Highest point End Downlink Frequencies (MHz)
Time Altitude Azimuth
PCSat 24 Mar 11:38:41 11:43:39 36° 305° (NW) 11:48:39 145.827
ESTCUBE 1 24 Mar 11:42:37 11:45:48 19° 94° (E) 11:48:59 437.505/2401.250
RS-15 24 Mar 11:42:56 11:50:35 20° 98° (E) 11:58:22 29.354- 29.394
DELFI C3 24 Mar 11:51:34 11:54:22 19° 292° (WNW) 11:57:11 145.870
TIGRISAT 24 Mar 11:55:15 11:57:21 13° 269° (W) 11:59:26 435.000
POLYITAN 1 24 Mar 11:55:18 11:59:32 62° 75° (ENE) 12:03:47 437.675
JUGNU 24 Mar 11:57:58 11:59:54 12° 184° (S) 12:01:51 437.505
QB50P2 24 Mar 11:59:45 12:04:01 76° 76° (ENE) 12:08:19 145.880/145.840
DUCHIFAT 1 24 Mar 12:15:59 12:20:14 89° 92° (E) 12:24:31 145.980
SPROUT 24 Mar 12:34:19 12:37:09 17° 93° (E) 12:39:58 437.525
AIST 2D 24 Mar 12:36:18 12:38:53 19° 265° (W) 12:41:29 435.315
LO-87 24 Mar 12:38:23 12:41:48 38° 287° (WNW) 12:45:12 145.935 - 145.965
BUGSAT 1 24 Mar 12:42:39 12:46:46 57° 75° (ENE) 12:50:58 437.445
DX 1 24 Mar 12:53:05 12:54:58 12° 92° (E) 12:56:50 434.975-435.025
NANOSAT C BR1 24 Mar 13:01:35 13:05:05 25° 264° (W) 13:08:36 145.865
EO-79 24 Mar 13:04:48 13:08:03 21° 265° (W) 13:11:20 145.935-145.965
VELOX 1 24 Mar 13:05:34 13:09:52 45° 99° (E) 13:14:07 145.980
Gurwin Techsat 1B 24 Mar 13:16:31 13:20:44 25° 66° (ENE) 13:24:57 435.225
ESTCUBE 1 24 Mar 13:18:34 13:22:42 37° 289° (WNW) 13:26:50 437.505/2401.250
Oscar 19 24 Mar 13:21:39 13:26:31 46° 71° (ENE) 13:31:25 437.125/150
AO-7 24 Mar 13:22:25 13:23:21 10° 44° (NE) 13:24:18 .
POLYITAN 1 24 Mar 13:35:18 13:35:40 10° 270° (W) 13:36:03 437.675
UKube-1 24 Mar 13:36:48 13:40:31 27° 97° (E) 13:44:13 .
50 SAT 24 Mar 13:47:24 13:50:55 79° 283° (WNW) 13:54:26 437.505
RS-15 24 Mar 13:49:11 14:01:08 85° 117° (ESE) 14:13:33 29.354- 29.394
SRMSAT 24 Mar 13:55:47 13:58:05 12° 181° (S) 14:00:23 437.500
NO-84 24 Mar 13:56:53 13:58:14 12° 29° (NNE) 13:59:37 435.350 FM
SPROUT 24 Mar 14:09:13 14:13:11 36° 288° (WNW) 14:17:06 437.525
BUGSAT 1 24 Mar 14:21:27 14:22:28 11° 269° (W) 14:23:30 437.445
DX 1 24 Mar 14:27:09 14:31:26 53° 287° (WNW) 14:35:42 434.975-435.025
VELOX 1 24 Mar 14:43:10 14:45:55 16° 295° (WNW) 14:48:39 145.980
Gurwin Techsat 1B 24 Mar 14:55:26 15:00:24 40° 261° (W) 15:05:24 435.225
Oscar 19 24 Mar 15:02:29 15:06:03 19° 267° (W) 15:09:37 437.125/150
ITAMSAT 1 24 Mar 15:03:08 15:07:59 41° 70° (ENE) 15:12:52 435.822/435.867
AO-7 24 Mar 15:06:13 15:14:09 51° 65° (ENE) 15:22:05 .
UKube-1 24 Mar 15:12:55 15:16:24 24° 292° (WNW) 15:19:52 .
NO-84 24 Mar 15:32:51 15:36:09 87° 40° (NE) 15:39:47 435.350 FM
SO-50 24 Mar 15:37:56 15:42:31 60° 118° (ESE) 15:47:05 436.795
BEESAT 24 Mar 15:57:22 16:02:07 68° 102° (ESE) 16:06:50 436.000
RS-15 24 Mar 16:04:36 16:15:13 34° 323° (NW) 16:26:06 29.354- 29.394
ITUPSAT 1 24 Mar 16:11:56 16:16:43 87° 285° (WNW) 16:21:28 437.325
MOZHAYETS 4 24 Mar 16:35:41 16:40:15 72° 103° (ESE) 16:44:46
KKS-1 24 Mar 16:36:05 16:38:25 14° 92° (E) 16:40:44 437.445
ITAMSAT 1 24 Mar 16:43:30 16:47:34 23° 265° (W) 16:51:38 435.822/435.867
O/OREOS (USA 219) 24 Mar 16:45:56 16:48:32 15° 99° (E) 16:51:07 437.305
AO-7 24 Mar 16:59:42 17:07:04 34° 262° (W) 17:14:28 .
DOVE 4 24 Mar 17:11:09 17:13:46 15° 63° (ENE) 17:16:28 437.250
STARS 24 Mar 17:18:24 17:21:23 18° 94° (E) 17:24:20 437.465
SO-50 24 Mar 17:20:15 17:23:22 17° 315° (NW) 17:26:26 436.795
CUBESAT XI-V 24 Mar 17:21:38 17:25:53 35° 97° (E) 17:30:08 437.345
BEESAT 24 Mar 17:37:14 17:39:17 13° 298° (WNW) 17:41:21 436.000
LilacSat-2 24 Mar 17:46:26 17:49:26 22° 70° (ENE) 17:52:25 437.200
HO-68 24 Mar 17:47:41 17:48:59 11° 51° (NE) 17:50:18 435.675
XW-2F 24 Mar 17:49:20 17:52:18 22° 70° (ENE) 17:55:14 145.980 - 146.000
KKS-1 24 Mar 18:10:54 18:15:14 50° 287° (WNW) 18:19:33 437.445
XW-2D 24 Mar 18:12:59 18:16:38 46° 74° (ENE) 18:20:17 145.860 - 145.880
CUTE-I 24 Mar 18:14:52 18:20:03 51° 72° (ENE) 18:25:16 437.470
MOZHAYETS 4 24 Mar 18:15:34 18:16:46 11° 297° (WNW) 18:17:58
XW-2B 24 Mar 18:18:47 18:22:30 53° 74° (ENE) 18:26:14 145.730 - 145.750
NUDT-PHONESAT 24 Mar 18:20:56 18:24:31 44° 74° (ENE) 18:28:06 437.300
O/OREOS (USA 219) 24 Mar 18:23:08 18:27:28 46° 295° (WNW) 18:31:53 437.305
KAITUO 1B 24 Mar 18:25:12 18:28:51 51° 75° (ENE) 18:32:30 145.475/437.950
RS-15 24 Mar 18:25:24 18:33:21 19° 358° (N) 18:41:15 29.354- 29.394
M-CUBED/EXP-1 PRIME 24 Mar 18:26:58 18:29:24 14° 97° (E) 18:31:51 437.505
XW-2C 24 Mar 18:28:46 18:32:34 74° 77° (ENE) 18:36:22 145.795 - 145.815
PCSat 24 Mar 18:45:01 18:48:59 20° 48° (NE) 18:52:56 145.827
DOVE 4 24 Mar 18:46:23 18:50:51 56° 261° (W) 18:55:39 437.250
STARS 24 Mar 18:53:44 18:57:51 38° 289° (WNW) 19:01:55 437.465
CUBESAT XI-V 24 Mar 18:59:30 19:03:02 22° 292° (WNW) 19:06:33 437.345
YUBILEINY 24 Mar 19:03:15 19:11:33 46° 76° (ENE) 19:19:48 435.215
XW-2A 24 Mar 19:09:20 19:12:16 26° 72° (ENE) 19:15:13 145.665 - 145.685
LilacSat-2 24 Mar 19:20:33 19:23:36 23° 265° (W) 19:26:41 437.200
XW-2F 24 Mar 19:23:18 19:26:20 22° 265° (W) 19:29:22 145.980 - 146.000
AAUSAT CUBESAT 2 24 Mar 19:24:07 19:24:48 10° 64° (ENE) 19:25:29 437.432
HO-68 24 Mar 19:28:16 19:35:15 60° 70° (ENE) 19:42:16 435.675
SEEDS 24 Mar 19:29:50 19:33:19 26° 70° (ENE) 19:36:48 437.485
CUTE 1.7 + AOD 2 24 Mar 19:31:48 19:35:46 43° 74° (ENE) 19:39:47 437.475
XW-2D 24 Mar 19:50:13 19:51:04 11° 269° (W) 19:51:53 145.860 - 145.880
CUTE-I 24 Mar 19:56:38 20:00:21 19° 267° (W) 20:04:05 437.470
NUDT-PHONESAT 24 Mar 19:57:48 19:58:39 11° 269° (W) 19:59:30 437.300
UWE-3 24 Mar 19:58:17 20:02:08 26° 69° (ENE) 20:05:58 435.000/436.395/437.385
M-CUBED/EXP-1 PRIME 24 Mar 19:59:32 20:04:04 58° 291° (WNW) 20:08:40 437.505
CUBEBUG 2 24 Mar 20:26:10 20:30:55 84° 76° (ENE) 20:35:41 437.445
PCSat 24 Mar 20:27:27 20:32:48 62° 246° (WSW) 20:38:08 145.827
STRAND 1 24 Mar 20:33:40 20:38:48 77° 103° (ESE) 20:43:54 437.568
Oscar 11 24 Mar 20:40:48 20:44:37 31° 71° (ENE) 20:48:25 .
RS-15 24 Mar 20:41:15 20:51:45 31° 33° (NNE) 21:01:54 29.354- 29.394
XW-2A 24 Mar 20:43:02 20:45:03 15° 266° (W) 20:47:04 145.665 - 145.685
ZACube-1 24 Mar 20:43:33 20:47:53 45° 73° (ENE) 20:52:13 437.345
AAUSAT CUBESAT 2 24 Mar 20:55:39 20:59:42 61° 259° (W) 21:03:47 437.432
YUBILEINY 24 Mar 21:00:25 21:08:04 36° 274° (W) 21:15:43 435.215
DELFI C3 24 Mar 21:01:33 21:03:42 14° 67° (ENE) 21:05:50 145.870
SEEDS 24 Mar 21:05:39 21:08:56 22° 265° (W) 21:12:14 437.485
CUTE 1.7 + AOD 2 24 Mar 21:09:35 21:11:48 14° 268° (W) 21:14:02 437.475
AO-73 24 Mar 21:13:01 21:17:35 88° 83° (E) 21:22:06 145.935
HO-68 24 Mar 21:17:51 21:23:21 24° 266° (W) 21:28:54 435.675
AO-85 24 Mar 21:19:58 21:24:06 36° 116° (ESE) 21:28:00 145.980
ISS 24 Mar 21:24:50 21:27:52 36° 135° (SE) 21:30:54 437.550
UWE-3 24 Mar 21:34:22 21:38:26 29° 264° (W) 21:42:30 435.000/436.395/437.385
Tancredo 1 24 Mar 21:34:34 21:37:39 54° 138° (SE) 21:40:46 437.200
PRISM 24 Mar 22:09:16 22:12:51 27° 97° (E) 22:16:25 437.425
TIGRISAT 24 Mar 22:10:44 22:12:48 13° 91° (E) 22:14:49 435.000
STRAND 1 24 Mar 22:15:09 22:17:17 13° 299° (WNW) 22:19:24 437.568
Oscar 11 24 Mar 22:17:32 22:20:46 20° 266° (W) 22:24:00 .
UNISAT 6 24 Mar 22:19:24 22:22:27 18° 93° (E) 22:25:27 437.425
ZACube-1 24 Mar 22:21:34 22:24:21 16° 268° (W) 22:27:06 437.345
DELFI C3 24 Mar 22:34:29 22:38:08 38° 262° (W) 22:41:49 145.870
ESTCUBE 1 24 Mar 22:41:29 22:44:04 15° 65° (ENE) 22:46:38 437.505/2401.250
FO-29 24 Mar 22:46:06 22:50:43 23° 91° (E) 22:54:58 435.910
RS-15 24 Mar 22:53:51 23:06:13 87° 60° (ENE) 23:17:58 29.354- 29.394
AO-85 24 Mar 23:01:09 23:04:34 22° 310° (NW) 23:07:50 145.980
ISS 24 Mar 23:01:37 23:04:23 25° 331° (NNW) 23:07:10 437.550
Tancredo 1 24 Mar 23:11:37 23:14:00 19° 334° (NNW) 23:16:25 437.200
LO-87 24 Mar 23:12:31 23:16:03 60° 75° (ENE) 23:19:37 145.935 - 145.965
BEESAT 3 24 Mar 23:19:29 23:23:22 66° 118° (ESE) 23:27:18 437.485
SPROUT 24 Mar 23:27:42 23:29:14 12° 64° (ENE) 23:30:47 437.525
BEESAT 2 24 Mar 23:30:53 23:34:24 32° 114° (ESE) 23:37:58 435.950
POLYITAN 1 24 Mar 23:44:08 23:45:16 11° 91° (E) 23:46:24 437.675
PRISM 24 Mar 23:44:45 23:47:58 22° 292° (WNW) 23:51:11 437.425
TIGRISAT 24 Mar 23:45:30 23:49:47 50° 287° (WNW) 23:53:57 435.000
QB50P2 24 Mar 23:47:44 23:49:53 14° 92° (E) 23:52:00 145.880/145.840
UNISAT 6 24 Mar 23:55:13 23:59:16 36° 289° (WNW) 00:03:15 437.425
VELOX 1 25 Mar 00:01:20 00:05:17 33° 70° (ENE) 00:09:15 145.980
AIST 2D 25 Mar 00:02:03 00:05:12 31° 97° (E) 00:08:19 435.315
DUCHIFAT 1 25 Mar 00:02:46 00:05:16 15° 93° (E) 00:07:45 145.980
SO-50 25 Mar 00:10:47 00:14:55 35° 52° (NE) 00:19:02 436.795
ESTCUBE 1 25 Mar 00:16:07 00:20:26 48° 260° (W) 00:24:47 437.505/2401.250
50 SAT 25 Mar 00:19:43 00:22:41 27° 72° (ENE) 00:25:39 437.505
UKube-1 25 Mar 00:30:16 00:33:24 20° 67° (ENE) 00:36:33 .
FO-29 25 Mar 00:30:22 00:36:07 44° 291° (WNW) 00:41:16 435.910
NANOSAT C BR1 25 Mar 00:46:23 00:50:33 56° 100° (E) 00:54:40 145.865
EO-79 25 Mar 00:49:37 00:53:52 68° 101° (ESE) 00:58:03 145.935-145.965
BEESAT 3 25 Mar 00:59:36 01:01:24 13° 316° (NW) 01:03:12 437.485
SPROUT 25 Mar 01:00:22 01:04:36 60° 259° (W) 01:08:53 437.525
RS-15 25 Mar 01:08:27 01:17:00 23° 261° (W) 01:25:20 29.354- 29.394
BEESAT 2 25 Mar 01:09:06 01:12:12 22° 311° (NW) 01:15:21 435.950
POLYITAN 1 25 Mar 01:17:14 01:21:23 55° 286° (WNW) 01:25:29 437.675
DX 1 25 Mar 01:20:41 01:25:01 76° 258° (WSW) 01:29:22 434.975-435.025
QB50P2 25 Mar 01:21:50 01:25:53 45° 287° (WNW) 01:29:54 145.880/145.840
Oscar 19 25 Mar 01:35:32 01:39:04 18° 93° (E) 01:42:35 437.125/150
AIST 2D 25 Mar 01:36:23 01:38:06 13° 292° (WNW) 01:39:50 435.315
DUCHIFAT 1 25 Mar 01:37:10 01:41:06 39° 288° (WNW) 01:45:00 145.980
VELOX 1 25 Mar 01:38:31 01:41:47 20° 266° (W) 01:45:03 145.980
SO-50 25 Mar 01:51:38 01:55:11 23° 248° (WSW) 01:58:42 436.795
50 SAT 25 Mar 01:53:53 01:55:45 14° 266° (W) 01:57:39 437.505
BUGSAT 1 25 Mar 02:01:01 02:05:10 66° 286° (WNW) 02:09:15 437.445
UKube-1 25 Mar 02:05:18 02:09:11 33° 262° (W) 02:13:06 .
ISS 25 Mar 02:19:11 02:19:33 10° 12° (NNE) 02:19:55 437.550
NANOSAT C BR1 25 Mar 02:24:08 02:25:44 12° 296° (WNW) 02:27:21 145.865
Tancredo 1 25 Mar 02:27:44 02:28:35 11° 15° (NNE) 02:29:27 437.200
EO-79 25 Mar 02:28:40 02:29:01 10° 297° (WNW) 02:29:21 145.935-145.965
O/OREOS (USA 219) 25 Mar 02:55:40 02:59:27 24° 60° (ENE) 03:03:13 437.305
BEESAT 25 Mar 03:02:00 03:06:44 66° 74° (ENE) 03:11:29 436.000
AO-7 25 Mar 03:11:36 03:16:09 16° 91° (E) 03:20:41 .
Gurwin Techsat 1B 25 Mar 03:12:39 03:18:01 90° 212° (SSW) 03:23:19 435.225
Oscar 19 25 Mar 03:13:38 03:18:36 49° 289° (WNW) 03:23:34 437.125/150
ITUPSAT 1 25 Mar 03:16:52 03:21:41 89° 259° (WSW) 03:26:30 437.325
ITAMSAT 1 25 Mar 03:18:41 03:21:46 16° 92° (E) 03:24:49 435.822/435.867
KKS-1 25 Mar 03:33:50 03:35:24 12° 63° (ENE) 03:36:57 437.445
MOZHAYETS 4 25 Mar 03:35:44 03:40:14 57° 74° (ENE) 03:44:44
ISS 25 Mar 03:53:53 03:56:52 30° 31° (NNE) 03:59:50 437.550
Tancredo 1 25 Mar 04:02:24 04:05:27 39° 34° (NNE) 04:08:29 437.200
STARS 25 Mar 04:14:22 04:16:41 14° 64° (ENE) 04:18:59 437.465
CUBESAT XI-V 25 Mar 04:23:36 04:27:32 29° 70° (ENE) 04:31:28 437.345
O/OREOS (USA 219) 25 Mar 04:34:48 04:38:51 31° 256° (WSW) 04:42:52 437.305
BEESAT 25 Mar 04:43:12 04:44:54 12° 269° (W) 04:46:37 436.000
Gurwin Techsat 1B 25 Mar 04:55:31 04:57:08 11° 301° (WNW) 04:58:45 435.225
ITAMSAT 1 25 Mar 04:56:28 05:01:34 57° 288° (WNW) 05:06:37 435.822/435.867
AO-7 25 Mar 05:01:34 05:09:54 87° 108° (ESE) 05:18:13 .
KKS-1 25 Mar 05:06:56 05:11:22 66° 259° (W) 05:15:50 437.445
M-CUBED/EXP-1 PRIME 25 Mar 05:13:03 05:14:02 11° 57° (ENE) 05:15:03 437.505
MOZHAYETS 4 25 Mar 05:15:41 05:17:43 13° 269° (W) 05:19:45
ISS 25 Mar 05:30:25 05:33:16 27° 227° (SW) 05:36:07 437.550
Tancredo 1 25 Mar 05:39:03 05:41:24 19° 229° (SW) 05:43:45 437.200
STARS 25 Mar 05:48:14 05:52:32 52° 260° (W) 05:56:54 437.465
AO-85 25 Mar 05:52:48 05:55:43 20° 49° (NE) 05:58:41 145.980
CUBESAT XI-V 25 Mar 06:01:05 06:04:51 25° 265° (W) 06:08:38 437.345
STRAND 1 25 Mar 06:13:06 06:14:38 11° 60° (ENE) 06:16:10 437.568
CUTE-I 25 Mar 06:34:05 06:38:15 23° 94° (E) 06:42:22 437.470
M-CUBED/EXP-1 PRIME 25 Mar 06:44:24 06:47:54 54° 255° (WSW) 06:51:44 437.505
DOVE 4 25 Mar 06:46:17 06:51:26 48° 98° (E) 06:56:27 437.250
NO-84 25 Mar 06:51:23 06:53:12 15° 126° (SE) 06:54:59 435.350 FM
LilacSat-2 25 Mar 06:54:24 06:57:56 38° 98° (E) 07:01:27 437.200
AO-7 25 Mar 06:55:57 07:01:38 21° 307° (NW) 07:07:19 .
XW-2F 25 Mar 06:56:10 06:59:39 36° 98° (E) 07:03:06 145.980 - 146.000
HO-68 25 Mar 07:03:02 07:03:15 10° 87° (E) 07:03:27 435.675
XW-2D 25 Mar 07:20:49 07:24:35 88° 100° (E) 07:28:19 145.860 - 145.880
NUDT-PHONESAT 25 Mar 07:26:30 07:30:12 80° 102° (ESE) 07:33:51 437.300
XW-2B 25 Mar 07:26:43 07:30:29 81° 282° (WNW) 07:34:12 145.730 - 145.750
KAITUO 1B 25 Mar 07:31:38 07:35:20 87° 284° (WNW) 07:39:02 145.475/437.950
AO-85 25 Mar 07:32:34 07:36:10 34° 245° (WSW) 07:39:52 145.980
XW-2C 25 Mar 07:36:53 07:40:34 57° 285° (WNW) 07:44:14 145.795 - 145.815
BEESAT 3 25 Mar 07:37:59 07:41:20 25° 51° (NE) 07:44:39 437.485
STRAND 1 25 Mar 07:47:53 07:53:03 87° 260° (W) 07:58:14 437.568
BEESAT 2 25 Mar 07:50:30 07:52:54 15° 46° (NE) 07:55:17 435.950
YUBILEINY 25 Mar 08:01:56 08:10:23 56° 90° (E) 08:18:49 435.215
XW-2A 25 Mar 08:05:00 08:08:07 33° 98° (E) 08:11:10 145.665 - 145.685
CUTE-I 25 Mar 08:13:24 08:18:25 42° 290° (WNW) 08:23:24 437.470
CUBEBUG 2 25 Mar 08:19:47 08:22:54 19° 93° (E) 08:25:57 437.445
DOVE 4 25 Mar 08:24:48 08:28:42 21° 294° (WNW) 08:32:33 437.250
NO-84 25 Mar 08:27:59 08:30:32 29° 322° (NW) 08:33:05 435.350 FM
LilacSat-2 25 Mar 08:30:03 08:31:51 13° 293° (WNW) 08:33:39 437.200
XW-2F 25 Mar 08:31:36 08:33:27 13° 293° (WNW) 08:35:18 145.980 - 146.000
AAUSAT CUBESAT 2 25 Mar 08:39:40 08:42:54 22° 95° (E) 08:46:07 437.432
HO-68 25 Mar 08:44:52 08:52:02 73° 104° (ESE) 08:59:11 435.675
SEEDS 25 Mar 08:49:39 08:53:49 63° 101° (E) 08:57:58 437.485
CUTE 1.7 + AOD 2 25 Mar 08:53:24 08:57:36 74° 284° (WNW) 09:01:48 437.475
PRISM 25 Mar 08:57:56 09:00:33 17° 66° (ENE) 09:03:10 437.425
FO-29 25 Mar 08:58:01 09:01:27 14° 56° (ENE) 09:04:49 435.910
AO-73 25 Mar 09:03:43 09:06:34 17° 93° (E) 09:09:21 145.935
TIGRISAT 25 Mar 09:08:41 09:10:19 12° 63° (ENE) 09:11:57 435.000
BEESAT 3 25 Mar 09:15:27 09:18:53 27° 247° (WSW) 09:22:17 437.485
UNISAT 6 25 Mar 09:17:04 09:19:52 16° 65° (ENE) 09:22:38 437.425
UWE-3 25 Mar 09:24:58 09:29:16 64° 100° (E) 09:33:26 435.000/436.395/437.385
PCSat 25 Mar 09:25:43 09:29:41 21° 106° (ESE) 09:33:41 145.827
BEESAT 2 25 Mar 09:27:01 09:31:00 55° 242° (WSW) 09:34:55 435.950
XW-2A 25 Mar 09:39:16 09:40:32 12° 293° (WNW) 09:41:48 145.665 - 145.685
JUGNU 25 Mar 09:54:47 09:56:38 11° 175° (S) 09:58:29 437.505
CUBEBUG 2 25 Mar 09:55:37 09:59:37 34° 289° (WNW) 10:03:28 437.445
YUBILEINY 25 Mar 10:00:07 10:07:32 30° 289° (WNW) 10:14:59 435.215
Oscar 11 25 Mar 10:04:43 10:09:03 80° 103° (ESE) 10:13:20 .
ZACube-1 25 Mar 10:09:24 10:13:38 68° 284° (WNW) 10:17:45 437.345
DELFI C3 25 Mar 10:12:58 10:16:22 27° 96° (E) 10:19:46 145.870
AAUSAT CUBESAT 2 25 Mar 10:14:48 10:18:19 27° 289° (WNW) 10:21:49 437.432
SEEDS 25 Mar 10:28:02 10:28:56 11° 296° (WNW) 10:29:49 437.485
PRISM 25 Mar 10:31:48 10:35:32 35° 262° (W) 10:39:17 437.425
HO-68 25 Mar 10:33:56 10:39:02 21° 301° (WNW) 10:44:08 435.675
FO-29 25 Mar 10:37:29 10:45:17 70° 73° (ENE) 10:52:42 435.910
AIST 2D 25 Mar 10:37:48 10:38:10 10° 66° (ENE) 10:38:31 435.315
AO-73 25 Mar 10:39:05 10:42:53 33° 288° (WNW) 10:46:37 145.935
TIGRISAT 25 Mar 10:41:41 10:46:22 73° 259° (W) 10:51:03 435.000
UNISAT 6 25 Mar 10:51:32 10:56:07 52° 260° (W) 11:00:42 437.425
DUCHIFAT 1 25 Mar 10:55:18 10:55:50 10° 63° (ENE) 10:56:22 145.980
UWE-3 25 Mar 11:04:03 11:05:07 11° 297° (WNW) 11:06:10 435.000/436.395/437.385
PCSat 25 Mar 11:07:27 11:12:41 49° 303° (WNW) 11:17:58 145.827
RS-15 25 Mar 11:10:40 11:15:15 13° 94° (E) 11:19:53 29.354- 29.394
